WXM80 ListenWXM80 Stop

You find our weather info also at:

UK Metoffice

WeatherCloud

Weather Underground

Northeastern Weather Network

AWEKAS

Citizen Weather Observer Program (CWOP)

HAMweather, WeatherForYou, PWS Weather


Weather Underground History page Text

Daily Summary for February 21, 2017 Units:  Metric    English   Both
« Previous Day
Next Day »
Daily Weekly Monthly Yearly Custom
  High: Low: Average:
Temperature: 7.4 °C -0.1 °C 3.8 °C
Dew Point: 2.7 °C -6.9 °C -1.7 °C
Humidity: 85 % 54 % 68 %
Wind Speed: 10.1 km/h 0 km/h 3.7 km/h
Wind Gust: 17.7 km/h - -
Wind:- - ESE
Pressure: 1028.3 hPa 1018.5 hPa -
Precipitation: 0 mm    
Historical Graphs
 
 
Tabular Data for February 21, 2017
Time Temperature Dew Point Pressure Wind Wind Speed Wind Gust Humidity Rainfall Rate (Hourly)
00:03 2.1 °C -3.8 °C 1027 hPa NE 0.3 km/h 1.9 km/h 65 % 0 mm
00:08 1.9 °C -3.9 °C 1027 hPa Calm     65 % 0 mm
00:13 1.8 °C -3.8 °C 1027 hPa NE 0.3 km/h 3.7 km/h 66 % 0 mm
00:18 1.7 °C -4 °C 1027 hPa NE 0.3 km/h 3.7 km/h 66 % 0 mm
00:23 1.6 °C -4.1 °C 1027 hPa Calm     66 % 0 mm
00:28 1.4 °C -4.1 °C 1027.3 hPa NE 0.2 km/h 3.7 km/h 67 % 0 mm
00:33 1.2 °C -4.1 °C 1027.3 hPa NE 0.6 km/h 1.9 km/h 68 % 0 mm
00:38 1.1 °C -4.4 °C 1027.3 hPa Calm     67 % 0 mm
00:43 0.9 °C -4.5 °C 1027.3 hPa Calm     67 % 0 mm
00:48 0.9 °C -4.2 °C 1027 hPa Calm   1.9 km/h 69 % 0 mm
00:53 0.8 °C -4.4 °C 1027.3 hPa Calm     68 % 0 mm
00:58 0.8 °C -4.3 °C 1027.3 hPa Calm     69 % 0 mm
01:03 0.7 °C -4.5 °C 1027.3 hPa Calm     68 % 0 mm
01:08 0.7 °C -4.4 °C 1027.3 hPa NE 0.8 km/h 3.7 km/h 69 % 0 mm
01:13 0.6 °C -4.6 °C 1027.3 hPa Calm     68 % 0 mm
01:18 0.6 °C -4.7 °C 1027.3 hPa Calm     68 % 0 mm
01:23 0.4 °C -4.6 °C 1027.3 hPa Calm     69 % 0 mm
01:28 0.3 °C -4.7 °C 1027.7 hPa Calm     69 % 0 mm
01:33 0.2 °C -4.6 °C 1027.7 hPa ENE 0.5 km/h 1.9 km/h 70 % 0 mm
01:38 0.2 °C -4.8 °C 1027.7 hPa Calm   1.6 km/h 69 % 0 mm
01:43 0.1 °C -4.9 °C 1027.3 hPa Calm     69 % 0 mm
01:49 0.1 °C -5.2 °C 1027.3 hPa Calm     68 % 0 mm
01:54 0.1 °C -5.2 °C 1027.3 hPa ENE 1.4 km/h 3.7 km/h 68 % 0 mm
01:59 0 °C -5.2 °C 1027.3 hPa NE 3.1 km/h 6.4 km/h 68 % 0 mm
02:04 -0.1 °C -5.8 °C 1027.3 hPa ENE 3.9 km/h 7.4 km/h 65 % 0 mm
02:09 -0.1 °C -6.1 °C 1027.3 hPa ENE 6.1 km/h 7.4 km/h 64 % 0 mm
02:14 0.2 °C -6.4 °C 1027.3 hPa ENE 4.5 km/h 7.4 km/h 61 % 0 mm
02:19 0.5 °C -6.4 °C 1027.3 hPa ENE 3.9 km/h 5.6 km/h 60 % 0 mm
02:24 0.7 °C -6.4 °C 1027.7 hPa ENE 4.3 km/h 5.6 km/h 59 % 0 mm
02:29 0.8 °C -6.1 °C 1027.7 hPa ENE 3.5 km/h 5.6 km/h 60 % 0 mm
02:34 0.9 °C -6 °C 1027.3 hPa NE 4 km/h 5.6 km/h 60 % 0 mm
02:39 1 °C -6.3 °C 1027.3 hPa East 7.2 km/h 11.1 km/h 58 % 0 mm
02:44 1.2 °C -6.9 °C 1027.3 hPa ENE 7.4 km/h 11.1 km/h 55 % 0 mm
02:49 1.3 °C -6.9 °C 1027.3 hPa ENE 5.3 km/h 13 km/h 54 % 0 mm
02:54 1.4 °C -6.6 °C 1027.3 hPa ENE 6.3 km/h 13 km/h 55 % 0 mm
02:59 1.5 °C -6.6 °C 1027 hPa NE 5.5 km/h 11.1 km/h 55 % 0 mm
03:04 1.5 °C -6.8 °C 1027 hPa ENE 5.6 km/h 12.9 km/h 54 % 0 mm
03:09 1.5 °C -6.3 °C 1027 hPa ENE 5.3 km/h 7.4 km/h 56 % 0 mm
03:14 1.5 °C -6.1 °C 1027 hPa ENE 5.8 km/h 7.4 km/h 57 % 0 mm
03:19 1.4 °C -6.4 °C 1027 hPa ENE 4.3 km/h 11.1 km/h 56 % 0 mm
03:24 1.4 °C -5.9 °C 1027 hPa ENE 3.9 km/h 5.6 km/h 58 % 0 mm
03:30 1.4 °C -6 °C 1027 hPa NE 3.7 km/h 5.6 km/h 58 % 0 mm
03:35 1.3 °C -6.1 °C 1027 hPa NE 3.7 km/h 5.6 km/h 58 % 0 mm
03:40 1.3 °C -6.1 °C 1027.3 hPa ENE 3.4 km/h 5.6 km/h 58 % 0 mm
03:45 1.2 °C -5.9 °C 1027.3 hPa ENE 4.8 km/h 11.1 km/h 59 % 0 mm
03:50 1.1 °C -5.8 °C 1027 hPa ENE 4.5 km/h 6.4 km/h 60 % 0 mm
03:55 1.1 °C -5.6 °C 1027.3 hPa ENE 3.1 km/h 5.6 km/h 61 % 0 mm
04:00 1 °C -5.7 °C 1027 hPa ENE 6.1 km/h 9.3 km/h 61 % 0 mm
04:05 1 °C -5.7 °C 1027.3 hPa ENE 4.3 km/h 5.6 km/h 61 % 0 mm
04:10 1 °C -5.5 °C 1027.3 hPa NE 3.2 km/h 7.4 km/h 62 % 0 mm
04:15 1.1 °C -5.4 °C 1027.3 hPa ENE 7.2 km/h 12.9 km/h 62 % 0 mm
04:20 1.1 °C -4.9 °C 1027.3 hPa ENE 3.7 km/h 5.6 km/h 64 % 0 mm
04:25 1.2 °C -4.9 °C 1027.7 hPa East 5.1 km/h 11.3 km/h 64 % 0 mm
04:30 1.2 °C -4.8 °C 1027.7 hPa ENE 8 km/h 11.3 km/h 64 % 0 mm
04:35 1.3 °C -4.6 °C 1027.7 hPa ENE 5.1 km/h 8 km/h 65 % 0 mm
04:40 1.3 °C -4.9 °C 1028 hPa ENE 8 km/h 13 km/h 63 % 0 mm
04:45 1.4 °C -4.7 °C 1027.7 hPa ENE 6 km/h 9.3 km/h 64 % 0 mm
04:50 1.3 °C -4.6 °C 1028 hPa ENE 6.3 km/h 11.3 km/h 65 % 0 mm
04:55 1.3 °C -4.7 °C 1028 hPa NE 4.3 km/h 7.4 km/h 64 % 0 mm
05:00 1.3 °C -4.6 °C 1028 hPa ENE 4.7 km/h 9.3 km/h 65 % 0 mm
05:05 1.3 °C -4.6 °C 1028 hPa ENE 3.5 km/h 5.6 km/h 65 % 0 mm
05:10 1.3 °C -4.4 °C 1028 hPa ENE 4.2 km/h 6.4 km/h 66 % 0 mm
05:15 1.3 °C -4.4 °C 1028 hPa East 4.7 km/h 9.7 km/h 66 % 0 mm
05:21 1.3 °C -4.4 °C 1028.3 hPa ENE 4 km/h 7.4 km/h 66 % 0 mm
05:26 1.2 °C -4.6 °C 1028.3 hPa ENE 4.5 km/h 5.6 km/h 65 % 0 mm
05:31 1.2 °C -4.7 °C 1028.3 hPa ENE 4.5 km/h 7.4 km/h 65 % 0 mm
05:36 1.2 °C -4.7 °C 1028.3 hPa NE 4.8 km/h 5.6 km/h 65 % 0 mm
05:41 1.1 °C -4.7 °C 1028.3 hPa NE 7.4 km/h 13 km/h 65 % 0 mm
05:46 1.1 °C -4.7 °C 1028.3 hPa ENE 2.3 km/h 5.6 km/h 65 % 0 mm
05:51 1.1 °C -4.7 °C 1028.3 hPa ENE 4 km/h 5.6 km/h 65 % 0 mm
05:56 1.1 °C -4.6 °C 1028 hPa NE 0.6 km/h 3.7 km/h 66 % 0 mm
06:01 1 °C -4.7 °C 1027.7 hPa ENE 3.9 km/h 5.6 km/h 66 % 0 mm
06:06 0.9 °C -4.8 °C 1027.7 hPa ENE 5.3 km/h 11.1 km/h 66 % 0 mm
06:11 0.9 °C -4.9 °C 1028 hPa ENE 6.3 km/h 11.1 km/h 65 % 0 mm
06:16 0.9 °C -4.8 °C 1027.7 hPa ENE 6.3 km/h 8 km/h 66 % 0 mm
06:21 0.9 °C -4.7 °C 1027.7 hPa ENE 6.3 km/h 8 km/h 66 % 0 mm
06:26 0.9 °C -4.8 °C 1027.7 hPa ENE 4.7 km/h 11.1 km/h 66 % 0 mm
06:31 0.9 °C -4.5 °C 1027.7 hPa NE 6.6 km/h 9.7 km/h 67 % 0 mm
06:36 0.9 °C -4.5 °C 1027.7 hPa ENE 6.1 km/h 13 km/h 67 % 0 mm
06:41 1 °C -4.4 °C 1027.3 hPa NE 7.9 km/h 11.1 km/h 67 % 0 mm
06:46 1 °C -4.4 °C 1027.3 hPa ENE 6 km/h 11.1 km/h 67 % 0 mm
06:51 1.1 °C -4.4 °C 1027.3 hPa ENE 6.8 km/h 11.1 km/h 67 % 0 mm
06:56 1.2 °C -4.3 °C 1027.3 hPa ENE 5.6 km/h 7.4 km/h 67 % 0 mm
07:01 1.3 °C -4 °C 1027.3 hPa ENE 6.6 km/h 9.3 km/h 68 % 0 mm
07:06 1.4 °C -3.8 °C 1027.3 hPa ENE 5 km/h 6.4 km/h 68 % 0 mm
07:11 1.6 °C -3.9 °C 1027.3 hPa ENE 5.8 km/h 8 km/h 67 % 0 mm
07:16 1.8 °C -3.7 °C 1027.3 hPa ENE 4.5 km/h 5.6 km/h 67 % 0 mm
07:21 1.8 °C -3.7 °C 1027.3 hPa ENE 4.3 km/h 5.6 km/h 67 % 0 mm
07:27 1.9 °C -3.6 °C 1027.3 hPa East 6 km/h 9.3 km/h 67 % 0 mm
07:32 2 °C -3.7 °C 1027.3 hPa East 4.2 km/h 7.4 km/h 66 % 0 mm
07:37 2 °C -3.7 °C 1027.7 hPa ENE 2.1 km/h 3.7 km/h 66 % 0 mm
07:42 2.1 °C -3.7 °C 1028 hPa ENE 2.4 km/h 3.7 km/h 66 % 0 mm
07:47 2.1 °C -3.8 °C 1028 hPa ENE 4.2 km/h 5.6 km/h 65 % 0 mm
07:52 2.1 °C -3.8 °C 1028 hPa ENE 1.9 km/h 3.7 km/h 65 % 0 mm
07:57 2.2 °C -3.7 °C 1028 hPa ENE 0.2 km/h 5.6 km/h 65 % 0 mm
08:02 2.2 °C -3.7 °C 1028.3 hPa ENE 0.3 km/h 3.7 km/h 65 % 0 mm
08:07 2.3 °C -3.4 °C 1028.3 hPa NE 3.2 km/h 5.6 km/h 66 % 0 mm
08:12 2.4 °C -3.3 °C 1028.3 hPa NNE 2.7 km/h 5.6 km/h 66 % 0 mm
08:17 2.6 °C -3.3 °C 1028.3 hPa NE 3.1 km/h 4.8 km/h 65 % 0 mm
08:22 2.8 °C -3.2 °C 1028.3 hPa North 5 km/h 5.6 km/h 65 % 0 mm
08:27 3 °C -3.2 °C 1028.3 hPa NE 2.7 km/h 7.4 km/h 64 % 0 mm
08:32 3.1 °C -3.3 °C 1028.3 hPa ENE 2.4 km/h 5.6 km/h 63 % 0 mm
08:37 3.2 °C -3.2 °C 1028.3 hPa NNE 3.9 km/h 5.6 km/h 63 % 0 mm
08:42 3.3 °C -3.1 °C 1028.3 hPa NNE 1.1 km/h 5.6 km/h 63 % 0 mm
08:47 3.5 °C -2.9 °C 1028.3 hPa NNE 2.1 km/h 5.6 km/h 63 % 0 mm
08:52 3.7 °C -2.5 °C 1028.3 hPa NE 2.6 km/h 5.6 km/h 64 % 0 mm
08:57 3.8 °C -2.6 °C 1028.3 hPa North 3.4 km/h 6.4 km/h 63 % 0 mm
09:02 3.9 °C -2.4 °C 1028 hPa NNE 2.6 km/h 5.6 km/h 63 % 0 mm
09:07 4 °C -2.6 °C 1028 hPa North 1.8 km/h 5.6 km/h 62 % 0 mm
09:12 3.9 °C -2.7 °C 1028 hPa ENE 2.7 km/h 5.6 km/h 62 % 0 mm
09:17 4.1 °C -2.4 °C 1028 hPa East 1.8 km/h 5.6 km/h 63 % 0 mm
09:22 3.9 °C -2.7 °C 1028 hPa NE 3.7 km/h 6.4 km/h 62 % 0 mm
09:28 3.9 °C -2.7 °C 1027.7 hPa NNE 5.5 km/h 7.4 km/h 62 % 0 mm
09:33 4.2 °C -2.4 °C 1028 hPa ENE 4.3 km/h 8 km/h 62 % 0 mm
09:38 4.3 °C -2.8 °C 1027.7 hPa ENE 4.5 km/h 7.4 km/h 60 % 0 mm
09:43 4.2 °C -2.7 °C 1027.7 hPa ENE 4.2 km/h 6.4 km/h 61 % 0 mm
09:48 4.2 °C -2.5 °C 1027.7 hPa ENE 6.3 km/h 11.3 km/h 62 % 0 mm
09:53 4.3 °C -2.4 °C 1027.7 hPa ENE 4.5 km/h 5.6 km/h 62 % 0 mm
09:58 4.3 °C -2.6 °C 1027.7 hPa ENE 5.8 km/h 8 km/h 61 % 0 mm
10:03 4.2 °C -2.7 °C 1027.7 hPa NNE 5.8 km/h 11.1 km/h 61 % 0 mm
10:08 4.3 °C -2.4 °C 1027.7 hPa East 5 km/h 7.4 km/h 62 % 0 mm
10:13 4.2 °C -2.5 °C 1027.3 hPa ENE 7.1 km/h 11.1 km/h 62 % 0 mm
10:18 4 °C -2.6 °C 1027.7 hPa ENE 6.1 km/h 11.1 km/h 62 % 0 mm
10:23 4 °C -2.4 °C 1027.7 hPa NE 5.3 km/h 6.4 km/h 63 % 0 mm
10:28 4 °C -2.2 °C 1027.7 hPa NE 3.2 km/h 12.9 km/h 64 % 0 mm
10:33 4.2 °C -2 °C 1027.7 hPa NE 4.8 km/h 8 km/h 64 % 0 mm
10:38 4.3 °C -1.9 °C 1027.7 hPa NE 1.6 km/h 8 km/h 64 % 0 mm
10:43 4.6 °C -2.1 °C 1027.3 hPa ENE 4.8 km/h 8 km/h 62 % 0 mm
10:48 4.6 °C -2.1 °C 1027.7 hPa ENE 3.2 km/h 8 km/h 62 % 0 mm
10:53 4.7 °C -2.2 °C 1027.3 hPa ENE 4.2 km/h 11.1 km/h 61 % 0 mm
10:58 4.8 °C -1.6 °C 1027.3 hPa NE 3.5 km/h 11.3 km/h 63 % 0 mm
11:03 4.9 °C -1.5 °C 1027.3 hPa ENE 3.2 km/h 11.3 km/h 63 % 0 mm
11:08 5.2 °C -1 °C 1027.3 hPa ENE 3.2 km/h 9.7 km/h 64 % 0 mm
11:13 5.5 °C -1.4 °C 1027.3 hPa ENE 4.8 km/h 8 km/h 61 % 0 mm
11:18 5.3 °C -1.6 °C 1027 hPa ENE 3.2 km/h 11.3 km/h 61 % 0 mm
11:23 5.3 °C -1.4 °C 1027 hPa NE 4.8 km/h 9.7 km/h 62 % 0 mm
11:28 5.7 °C -0.6 °C 1026.6 hPa NE 4.8 km/h 8 km/h 64 % 0 mm
11:33 5.6 °C -1.3 °C 1026.6 hPa ENE 4.8 km/h 11.3 km/h 61 % 0 mm
11:38 5.4 °C -1.3 °C 1026.6 hPa ENE 3.2 km/h 11.3 km/h 62 % 0 mm
11:43 5.4 °C -1.5 °C 1026.6 hPa NE 4.8 km/h 9.7 km/h 61 % 0 mm
11:48 5.3 °C -1.2 °C 1026.3 hPa ENE 4.8 km/h 11.3 km/h 63 % 0 mm
11:53 5.2 °C -1.2 °C 1026.3 hPa NE 3.2 km/h 12.9 km/h 63 % 0 mm
11:58 5.3 °C -1.2 °C 1026.3 hPa NE 5.1 km/h 7.4 km/h 63 % 0 mm
12:03 5.2 °C -1.3 °C 1026.3 hPa NE 8 km/h 12.9 km/h 63 % 0 mm
12:08 4.9 °C -1.3 °C 1026 hPa ENE 8 km/h 12.9 km/h 64 % 0 mm
12:13 4.9 °C -0.9 °C 1026.3 hPa ENE 3.2 km/h 11.3 km/h 66 % 0 mm
12:18 5.1 °C -0.7 °C 1026 hPa ENE 4.5 km/h 9.3 km/h 66 % 0 mm
12:23 5.2 °C -0.9 °C 1026 hPa NE 3.2 km/h 8 km/h 65 % 0 mm
12:28 5.2 °C -1.3 °C 1025.6 hPa NE 4.8 km/h 11.3 km/h 63 % 0 mm
12:33 5.3 °C -0.7 °C 1025.6 hPa NE 3.2 km/h 8 km/h 65 % 0 mm
12:38 5.6 °C -0.7 °C 1025.6 hPa NE 3.2 km/h 8 km/h 64 % 0 mm
12:43 5.5 °C -0.6 °C 1025.3 hPa ENE 1.6 km/h 8 km/h 65 % 0 mm
12:48 5.7 °C -0.4 °C 1025.3 hPa NE 3.2 km/h 11.3 km/h 65 % 0 mm
12:53 5.8 °C -0.7 °C 1025.3 hPa NE 3.2 km/h 8 km/h 63 % 0 mm
12:58 6.2 °C -0.1 °C 1024.9 hPa ENE 5.1 km/h 5.6 km/h 64 % 0 mm
13:03 6.2 °C -0.6 °C 1024.9 hPa NE 3.2 km/h 8 km/h 62 % 0 mm
13:08 6.1 °C -0.2 °C 1024.9 hPa NE 4.8 km/h 8 km/h 64 % 0 mm
13:13 6 °C -0.1 °C 1024.9 hPa NE 0.2 km/h 5.6 km/h 65 % 0 mm
13:18 5.9 °C -0.4 °C 1024.9 hPa NE 3.2 km/h 8 km/h 64 % 0 mm
13:23 5.9 °C -0.2 °C 1024.9 hPa NNE 3.2 km/h 9.7 km/h 65 % 0 mm
13:28 5.8 °C -0.2 °C 1024.6 hPa NE 3.2 km/h 8 km/h 65 % 0 mm
13:33 5.8 °C -0.4 °C 1024.6 hPa ENE 4.7 km/h 5.6 km/h 64 % 0 mm
13:38 5.8 °C -0.2 °C 1024.6 hPa NE 1.6 km/h 6.4 km/h 65 % 0 mm
13:43 5.9 °C 0.1 °C 1024.3 hPa NE 3.2 km/h 8 km/h 66 % 0 mm
13:48 5.9 °C 0.1 °C 1024.3 hPa NE 3.2 km/h 8 km/h 66 % 0 mm
13:53 5.9 °C 0.2 °C 1024.3 hPa NE 3.2 km/h 8 km/h 67 % 0 mm
13:58 5.8 °C -0.1 °C 1024.3 hPa ENE 4.5 km/h 6.4 km/h 66 % 0 mm
14:03 5.7 °C -0.3 °C 1023.9 hPa ENE 1.6 km/h 8 km/h 65 % 0 mm
14:08 5.7 °C -0.3 °C 1023.9 hPa ENE 3.2 km/h 9.7 km/h 65 % 0 mm
14:13 5.6 °C -0.5 °C 1023.6 hPa NE 5.5 km/h 8 km/h 65 % 0 mm
14:18 5.5 °C -0.3 °C 1023.6 hPa NNE 3.2 km/h 6.4 km/h 66 % 0 mm
14:23 5.6 °C -0.3 °C 1023.6 hPa NE 4.8 km/h 8 km/h 66 % 0 mm
14:28 5.6 °C -0.1 °C 1023.6 hPa ENE 1.6 km/h 6.4 km/h 67 % 0 mm
14:33 5.6 °C -0.3 °C 1023.6 hPa ENE 3.4 km/h 7.4 km/h 66 % 0 mm
14:38 5.6 °C 0.1 °C 1023.6 hPa NE 8 km/h 9.7 km/h 68 % 0 mm
14:43 5.7 °C 0 °C 1023.6 hPa NNE 1.6 km/h 6.4 km/h 67 % 0 mm
14:48 5.7 °C -0.2 °C 1023.6 hPa NE 3.2 km/h 11.3 km/h 66 % 0 mm
14:53 5.7 °C 0 °C 1023.6 hPa NE 2.9 km/h 7.4 km/h 67 % 0 mm
14:58 5.7 °C 0.3 °C 1023.6 hPa NE 1.1 km/h 3.2 km/h 68 % 0 mm
15:03 5.8 °C 0.2 °C 1023.2 hPa SSW 6 km/h 11.3 km/h 67 % 0 mm
15:08 6.1 °C 0.2 °C 1023.6 hPa WNW 2.3 km/h 5.6 km/h 66 % 0 mm
15:13 6.3 °C -0.1 °C 1023.6 hPa West 5.6 km/h 9.3 km/h 64 % 0 mm
15:19 6.7 °C -0.3 °C 1023.2 hPa WSW 6 km/h 9.3 km/h 61 % 0 mm
15:24 6.9 °C -0.3 °C 1022.9 hPa South 6.3 km/h 8 km/h 60 % 0 mm
15:29 7 °C 0.2 °C 1022.9 hPa South 3.5 km/h 5.6 km/h 62 % 0 mm
15:34 7.2 °C -0.1 °C 1022.9 hPa SSW 3.2 km/h 7.4 km/h 60 % 0 mm
15:39 7.3 °C 0.2 °C 1022.9 hPa SSW 4 km/h 11.1 km/h 61 % 0 mm
15:44 7.3 °C 0.1 °C 1022.6 hPa SSW 3.1 km/h 5.6 km/h 60 % 0 mm
15:49 7.4 °C 0.1 °C 1022.9 hPa South 5.3 km/h 11.1 km/h 60 % 0 mm
15:50 7.4 °C 0.3 °C 1022.6 hPa SSW 5 km/h 8 km/h 61 % 0 mm
15:55 7.2 °C -0.3 °C 1022.9 hPa SSW 4.7 km/h 11.1 km/h 59 % 0 mm
16:00 7.1 °C -0.1 °C 1022.9 hPa SW 3.2 km/h 11.1 km/h 60 % 0 mm
16:05 7.1 °C -0.2 °C 1023.2 hPa SSW 5.8 km/h 9.3 km/h 60 % 0 mm
16:10 7 °C -0.2 °C 1023.2 hPa SSW 5.6 km/h 13 km/h 60 % 0 mm
16:15 6.9 °C -0.3 °C 1022.9 hPa WSW 3.4 km/h 11.1 km/h 60 % 0 mm
16:20 6.8 °C -0.4 °C 1022.9 hPa SSW 0.8 km/h 5.6 km/h 60 % 0 mm
16:25 6.8 °C -0.2 °C 1022.9 hPa SSW 6.1 km/h 11.3 km/h 61 % 0 mm
16:30 6.6 °C -0.4 °C 1022.6 hPa South 6 km/h 11.1 km/h 61 % 0 mm
16:35 6.5 °C -0.3 °C 1022.6 hPa South 4.7 km/h 9.3 km/h 62 % 0 mm
16:40 6.4 °C -0.1 °C 1022.6 hPa South 1.4 km/h 5.6 km/h 63 % 0 mm
16:45 6.3 °C -0.2 °C 1022.6 hPa South 1.6 km/h 5.6 km/h 63 % 0 mm
16:47 6.3 °C -0.2 °C 1022.6 hPa South 1.4 km/h 8 km/h 63 % 0 mm
16:52 6.2 °C -0.1 °C 1022.6 hPa South 1.8 km/h 1.9 km/h 64 % 0 mm
16:57 6.2 °C -0.2 °C 1022.6 hPa SSW 2.9 km/h 5.6 km/h 64 % 0 mm
17:02 6.1 °C -0.2 °C 1022.6 hPa SSW 3.7 km/h 7.4 km/h 64 % 0 mm
17:07 6 °C -0.1 °C 1022.6 hPa South 7.6 km/h 13 km/h 65 % 0 mm
17:12 5.9 °C 0.1 °C 1022.6 hPa SSW 1.6 km/h 3.7 km/h 66 % 0 mm
17:17 5.8 °C -0.1 °C 1022.2 hPa SSE 4 km/h 7.4 km/h 66 % 0 mm
17:22 5.8 °C -0.1 °C 1021.9 hPa SSE 6.1 km/h 11.1 km/h 66 % 0 mm
17:27 5.7 °C -0.2 °C 1021.9 hPa SSE 5 km/h 8 km/h 66 % 0 mm
17:32 5.6 °C -0.1 °C 1021.9 hPa SSE 3.2 km/h 7.4 km/h 67 % 0 mm
17:37 5.6 °C 0.1 °C 1021.9 hPa SSW 5.3 km/h 11.1 km/h 68 % 0 mm
17:42 5.5 °C 0.3 °C 1022.2 hPa South 4 km/h 9.7 km/h 69 % 0 mm
17:47 5.4 °C 0.2 °C 1022.2 hPa SSE 4.5 km/h 9.7 km/h 69 % 0 mm
17:52 5.4 °C 0.4 °C 1022.2 hPa SSE 3.9 km/h 5.6 km/h 70 % 0 mm
17:57 5.3 °C 0.3 °C 1021.9 hPa SE 7.2 km/h 8 km/h 70 % 0 mm
18:02 5.3 °C 0.2 °C 1021.9 hPa SSE 2.6 km/h 5.6 km/h 70 % 0 mm
18:07 5.3 °C 0.2 °C 1022.2 hPa South 3.9 km/h 9.3 km/h 70 % 0 mm
18:12 5.2 °C 0.4 °C 1022.2 hPa South 2.3 km/h 6.4 km/h 71 % 0 mm
18:17 5.2 °C 0.3 °C 1022.2 hPa SSE 4 km/h 7.4 km/h 71 % 0 mm
18:18 5.2 °C 0.3 °C 1022.2 hPa SSW 3.1 km/h 8 km/h 71 % 0 mm
18:23 5.1 °C 0.3 °C 1022.2 hPa SSW 2.1 km/h 5.6 km/h 71 % 0 mm
18:28 5.1 °C 0.4 °C 1022.6 hPa South 3.7 km/h 6.4 km/h 72 % 0 mm
18:34 5 °C 0.4 °C 1022.2 hPa SSW 1.6 km/h 6.4 km/h 72 % 0 mm
18:39 4.9 °C 0.3 °C 1022.2 hPa South 1.4 km/h 3.7 km/h 72 % 0 mm
18:44 4.9 °C 0.4 °C 1022.2 hPa South 3.4 km/h 5.6 km/h 73 % 0 mm
18:49 4.8 °C 0.4 °C 1021.9 hPa SSE 2.6 km/h 6.4 km/h 73 % 0 mm
18:54 4.8 °C 0.3 °C 1021.6 hPa South 0.5 km/h 3.7 km/h 73 % 0 mm
18:59 4.8 °C 0.6 °C 1021.6 hPa SSE 4.3 km/h 9.3 km/h 74 % 0 mm
19:04 4.7 °C 0.6 °C 1021.6 hPa South 2.9 km/h 5.6 km/h 75 % 0 mm
19:09 4.7 °C 0.6 °C 1021.6 hPa SSW 1.9 km/h 5.6 km/h 75 % 0 mm
19:14 4.6 °C 0.6 °C 1021.6 hPa South 3.7 km/h 7.4 km/h 75 % 0 mm
19:19 4.6 °C 0.7 °C 1021.6 hPa SSW 2.9 km/h 7.4 km/h 76 % 0 mm
19:24 4.6 °C 0.7 °C 1021.6 hPa SSW 3.4 km/h 9.7 km/h 76 % 0 mm
19:29 4.6 °C 0.7 °C 1021.2 hPa South 4 km/h 5.6 km/h 76 % 0 mm
19:34 4.6 °C 0.7 °C 1020.9 hPa SSE 5.8 km/h 11.1 km/h 76 % 0 mm
19:39 4.6 °C 0.9 °C 1021.2 hPa SSW 4 km/h 5.6 km/h 77 % 0 mm
19:44 4.6 °C 0.9 °C 1021.2 hPa SSW 0.2 km/h 5.6 km/h 77 % 0 mm
19:49 4.6 °C 0.9 °C 1021.2 hPa SSW 4.5 km/h 6.4 km/h 77 % 0 mm
19:55 4.6 °C 0.9 °C 1021.2 hPa South 5.3 km/h 9.7 km/h 77 % 0 mm
20:00 4.6 °C 0.9 °C 1021.2 hPa SSW 2.3 km/h 5.6 km/h 77 % 0 mm
20:05 4.6 °C 0.9 °C 1021.2 hPa South 6.4 km/h 9.3 km/h 77 % 0 mm
20:10 4.6 °C 0.9 °C 1021.2 hPa South 3.2 km/h 5.6 km/h 77 % 0 mm
20:15 4.6 °C 0.9 °C 1021.2 hPa South 2.3 km/h 9.3 km/h 77 % 0 mm
20:20 4.6 °C 0.9 °C 1021.2 hPa SSW 6.9 km/h 11.3 km/h 77 % 0 mm
20:25 4.6 °C 0.9 °C 1021.2 hPa South 5.3 km/h 5.6 km/h 77 % 0 mm
20:30 4.6 °C 0.9 °C 1021.2 hPa South 2.6 km/h 3.7 km/h 77 % 0 mm
20:35 4.7 °C 1 °C 1021.2 hPa SSW 4 km/h 9.3 km/h 77 % 0 mm
20:40 4.7 °C 1 °C 1020.9 hPa SSW 6.3 km/h 11.3 km/h 77 % 0 mm
20:45 4.7 °C 1.2 °C 1020.9 hPa SW 4.7 km/h 13 km/h 78 % 0 mm
20:50 4.7 °C 1.2 °C 1021.2 hPa SSW 2.3 km/h 5.6 km/h 78 % 0 mm
20:55 4.7 °C 1.2 °C 1021.2 hPa SSW 2.7 km/h 5.6 km/h 78 % 0 mm
21:00 4.7 °C 1.2 °C 1021.2 hPa SSW 2.1 km/h 7.4 km/h 78 % 0 mm
21:05 4.7 °C 1.2 °C 1020.9 hPa SSW 1.3 km/h 5.6 km/h 78 % 0 mm
21:10 4.7 °C 1.2 °C 1021.2 hPa SSW 0.6 km/h 5.6 km/h 78 % 0 mm
21:15 4.7 °C 1.2 °C 1021.2 hPa SSW 1.9 km/h 7.4 km/h 78 % 0 mm
21:20 4.7 °C 1.4 °C 1020.9 hPa South 1.4 km/h 3.7 km/h 79 % 0 mm
21:25 4.7 °C 1.4 °C 1020.9 hPa South 0.3 km/h 3.7 km/h 79 % 0 mm
21:30 4.7 °C 1.4 °C 1020.9 hPa SSW 3.4 km/h 5.6 km/h 79 % 0 mm
21:35 4.7 °C 1.4 °C 1020.9 hPa SSW 2.9 km/h 7.4 km/h 79 % 0 mm
21:40 4.7 °C 1.4 °C 1020.9 hPa South 2.6 km/h 6.4 km/h 79 % 0 mm
21:45 4.7 °C 1.6 °C 1020.9 hPa SSW 4.7 km/h 7.4 km/h 80 % 0 mm
21:50 4.7 °C 1.7 °C 1020.5 hPa SSW 0.8 km/h 3.7 km/h 81 % 0 mm
21:56 4.7 °C 1.7 °C 1020.9 hPa SW 4.7 km/h 5.6 km/h 81 % 0 mm
22:01 4.7 °C 1.7 °C 1020.5 hPa SSW 3.7 km/h 7.4 km/h 81 % 0 mm
22:06 4.7 °C 1.9 °C 1020.5 hPa SSW 4 km/h 5.6 km/h 82 % 0 mm
22:11 4.7 °C 1.9 °C 1020.5 hPa SW 2.7 km/h 11.1 km/h 82 % 0 mm
22:16 4.7 °C 1.9 °C 1020.5 hPa SSW 1.1 km/h 5.6 km/h 82 % 0 mm
22:21 4.7 °C 1.9 °C 1020.2 hPa South 3.9 km/h 7.4 km/h 82 % 0 mm
22:26 4.8 °C 1.9 °C 1020.2 hPa South 1 km/h 3.7 km/h 82 % 0 mm
22:31 4.8 °C 1.9 °C 1019.9 hPa SSW 2.9 km/h 6.4 km/h 82 % 0 mm
22:36 4.8 °C 1.9 °C 1019.9 hPa SSW 0.5 km/h 3.7 km/h 82 % 0 mm
22:41 4.8 °C 2.1 °C 1019.9 hPa Calm   3.7 km/h 83 % 0 mm
22:46 4.8 °C 2.1 °C 1019.9 hPa SW 1.3 km/h 5.6 km/h 83 % 0 mm
22:51 4.8 °C 2.3 °C 1019.9 hPa South 0.5 km/h 3.7 km/h 84 % 0 mm
22:56 4.8 °C 2.3 °C 1019.5 hPa SW 0.2 km/h 3.2 km/h 84 % 0 mm
23:01 4.8 °C 2.3 °C 1019.5 hPa SW 1.9 km/h 5.6 km/h 84 % 0 mm
23:06 4.8 °C 2.3 °C 1019.5 hPa SW 2.7 km/h 5.6 km/h 84 % 0 mm
23:12 4.8 °C 2.3 °C 1019.2 hPa SW 4.7 km/h 8 km/h 84 % 0 mm
23:17 4.8 °C 2.3 °C 1019.2 hPa SW 5.6 km/h 9.3 km/h 84 % 0 mm
23:22 4.8 °C 2.3 °C 1019.2 hPa SSW 4.5 km/h 11.3 km/h 84 % 0 mm
23:27 4.8 °C 2.5 °C 1019.2 hPa SSW 1.1 km/h 3.7 km/h 85 % 0 mm
23:32 4.8 °C 2.5 °C 1019.2 hPa SW 3.2 km/h 5.6 km/h 85 % 0 mm
23:37 4.9 °C 2.6 °C 1019.2 hPa SW 2.4 km/h 7.4 km/h 85 % 0 mm
23:42 4.9 °C 2.6 °C 1019.2 hPa SSW 6.9 km/h 13 km/h 85 % 0 mm
23:47 4.9 °C 2.6 °C 1018.8 hPa SSE 7.9 km/h 14.8 km/h 85 % 0 mm
23:52 4.9 °C 2.6 °C 1018.5 hPa South 9 km/h 9.7 km/h 85 % 0 mm
23:57 5 °C 2.7 °C 1018.5 hPa SW 10.1 km/h 17.7 km/h 85 % 0 mm
Crab Meadow Weather
Compliments of Weather Underground - 3 mb

Script developed by  Jim McMurry - jmcmurry@mwt.net Adapted for the template by  Wim van der Kuil - Leuven-Template.eu

Astronomy: The rings of Saturn are made of ice and rock.